Other Public Products
Issued by NWS Grand Forks, ND

Home | Current Version | Previous Version | Graphics & Text | Print | Product List | Glossary On
Versions: 1 2 3 4 5 6 7 8 9 10 11 12 13 14 15 16 17 18 19 20 21 22 23 24 25 26 27 28 29 30 31 32 33 34 35 36 37 38 39 40 41 42 43 44 45 46 47 48 49 50
000
FPUS83 KFGF 201410
OPUFGF
PRAIRIE TO PINES WEATHER ROUNDUP
NATIONAL WEATHER SERVICE EASTERN NORTH DAKOTA/GRAND FORKS ND
800 AM CST TUE FEB 20 2018

 **SATELLITE DATA USED TO AUGMENT SKY COVER AT AUTOMATED STATIONS**
 *****  WEATHER ACROSS EASTERN NORTH DAKOTA  *****

CITY           SKY/WX    TMP DP  RH WIND       PRES   REMARKS
GRAND FORKS    LGT SNOW   5   1  83 N16       30.11S FOG     WCI -14
GRND FORKS AFB LGT SNOW   4  -1  79 N13       30.10F FOG     WCI -13
GRND FORKS NWS   N/A      3   1  90 N14       30.08S WCI -14
BUXTON           N/A      4   4  99 NW20        N/A  WCI -17
DEVILS LAKE    LGT SNOW   3  -1  83 NW9       30.09R FOG     WCI -12
FARGO          LGT SNOW   5   2  87 N23       30.07R VSB 3/4 WCI -17
WAHPETON ARPT  CLOUDY     5   1  85 NW16G24   30.06R WCI -14
$$

 *****  WEATHER ACROSS CENTRAL AND WESTERN NORTH DAKOTA  *****

CITY           SKY/WX    TMP DP  RH WIND       PRES   REMARKS
JAMESTOWN      LGT SNOW   3   0  87 NW15      30.08R FOG     WCI -16
BISMARCK       FLURRIES   5   0  79 NW7       30.13S WCI  -7
MINOT          MOCLDY     1  -4  79 SW7       30.10R HAZE    WCI -12
MINOT AFB      FAIR      -2  -7  81 W7        30.09S WCI -16
GARRISON         N/A     -3  -7  82 W8        30.10R WCI -18
WILLISTON      FLURRIES  -1  -6  79 W12       30.11R WCI -18
DICKINSON      FAIR      -9 -13  83 W10       30.05R FOG     WCI -27
HETTINGER      CLOUDY    -6 -11  79 NW9       30.08R WCI -23
$$

 *****  OTHER OBSERVATIONS NORTHEAST NORTH DAKOTA  *****

CITY           SKY/WX    TMP DP  RH WIND       PRES   REMARKS
WALHALLA       LGT SNOW   3   3 100 NW5       30.12S WCI  -6
LANGDON        LGT SNOW   3   1  92 NW7       30.06S WCI  -9
CAVALIER       LGT SNOW   3   0  85 N6        30.12F WCI  -8
GRAFTON        FOG        3   0  85 N12       30.14S VSB 3/4 WCI -13
CANDO          FAIR       3   0  85 NW8       30.10F FOG     WCI -10
FORT TOTTEN      N/A      3  -1  82 NW3       29.95S
ROLLA          LGT SNOW   1  -4  78 NW5       30.06S WCI  -8
RUGBY          CLOUDY     0  -4  85 W7        30.10F FOG     WCI -13
 ***** THE ABOVE OBSERVATIONS ARE NON NWS ARE NOT QUALITY
        CONTROLLED AND MAY MIS-REPORT RAIN FOR SNOW...
$$

 *****  OTHER OBSERVATIONS SOUTHEAST NORTH DAKOTA *****

CITY           SKY/WX    TMP DP  RH WIND       PRES   REMARKS
COOPERSTOWN    LGT SNOW   3   0  85 N15       30.06F WCI -15
VALLEY CITY    LGT SNOW   3   0  85 N13       30.07R WCI -14
OAKES            N/A      3   0  85 N15       30.07R WCI -15
GWINNER          N/A      5   0  78 NW17      30.06R HAZE    WCI -14
SHEYENNE NWR     N/A      4   1  86 N12       29.95S WCI -12
BUFFALO          N/A      4   0  83 E16         N/A  WCI -15
WYNDMERE       NOT AVBL
 ***** THE ABOVE OBSERVATIONS ARE NON NWS ARE NOT QUALITY
       CONTROLLED AND MAY MIS-REPORT RAIN FOR SNOW...
$$

  *****  WEATHER ACROSS NORTHERN MINNESOTA  *****

CITY           SKY/WX    TMP DP  RH WIND       PRES   REMARKS
FLAG ISLAND    CLOUDY     3  -2  78 NW9       30.05S HAZE    WCI -11
WARROAD        LGT SNOW   3   0  85 NW8       30.05S WCI -10
ROSEAU         NOT AVBL
HALLOCK        LGT SNOW   3   0  85 N8        30.12S WCI -10
THF RVR FALLS  LGT SNOW   3  -1  83 N16       30.05R FOG     WCI -16
HALSTAD        NOT AVBL
FOSSTON        LGT SNOW   3  -2  78 N12       30.00S WCI -13
BAUDETTE       LGT SNOW   3  -1  83 N12       29.99R FOG     WCI -13
WASKISH        LGT SNOW   5   1  85 N5        30.00R WCI  -4
CROOKSTON      LGT SNOW   3   0  85 N18       30.08S WCI -17
$$
  *****  WEATHER ACROSS CENTRAL AND WEST MINNESOTA  *****

CITY           SKY/WX    TMP DP  RH WIND       PRES   REMARKS
BEMIDJI        LGT SNOW   4   0  81 N9        29.95S WCI -10
PARK RAPIDS    LGT SNOW   6   1  80 N8        29.93R WCI  -7
WADENA         LGT SNOW   7   1  78 N9        29.92F WCI  -7
DETROIT LAKES  LGT SNOW   7   3  85 NW13      29.97S WCI  -9
MOORHEAD       LGT SNOW   3   0  85 N18       30.06R WCI -17
FERGUS FALLS   LGT SNOW   7   1  78 N18       29.98S WCI -12
ELBOW LAKE     LGT SNOW   7   3  86 W12       29.96F WCI  -9
MORRIS MN      LGT SNOW   7   3  85 NW17      29.96R WCI -12
STAPLES        FLURRIES   7   1  78 N8        29.93R WCI  -6
WHEATON        SNOW       5   0  78 NW21      30.05R VSB 1/4 WCI -16
$$
  *****  WEATHER ELSEWHERE ACROSS MINNESOTA  *****

CITY           SKY/WX    TMP DP  RH WIND       PRES   REMARKS
DULUTH         FLURRIES   8   4  83 N8        29.83F WCI  -4
INTRNTL FALLS  LGT SNOW   4   0  83 N6        29.96R VSB 1   WCI  -7
ELY            CLOUDY     3   0  85 N3        29.88F
CLOQUET        CLOUDY     9   1  72 N13       29.86R WCI  -7
BRAINERD       CLOUDY     9   2  73 N9        29.91R WCI  -4
HIBBING        CLOUDY     4  -1  80 N8        29.89S WCI  -9
ALEXANDRIA     LGT SNOW   9   4  80 N10       29.93R WCI  -5
SAINT CLOUD    CLOUDY    12   8  84 NW7       29.91R WCI   1
MINNEAPOLIS    FRZ DRZL  20  18  92 N8        29.87R WCI  10
$$

  *****  WEATHER ACROSS SOUTH DAKOTA  *****

CITY           SKY/WX    TMP DP  RH WIND       PRES   REMARKS
SIOUX FALLS    FLURRIES   7   2  80 NW14      29.97R WCI -10
BROOKINGS      LGT SNOW   4   0  83 NW14      29.94F FOG     WCI -14
WATERTOWN      LGT SNOW   3   0  87 NW18      29.96F FOG     WCI -17
HURON          LGT SNOW   5   1  83 N20       30.06F FOG     WCI -15
SISSETON         N/A      5   1  83 NW20      30.05R WCI -15
ABERDEEN       LGT SNOW   5   1  83 N15       30.09R FOG     WCI -13
MITCHELL       CLOUDY     4   0  83 NW18      30.05F WCI -16
PIERRE         CLOUDY     3  -1  83 NW13      30.13R WCI -14
MOBRIDGE       LGT SNOW   5   0  79 NW9       30.08S WCI  -9
RAPID CITY     FAIR      -6 -10  83 NW9       30.04R WCI -23
$$

  *****  SOME WEATHER IN NEARBY STATES *****

CITY           SKY/WX    TMP DP  RH WIND       PRES   REMARKS
GLASGOW MT     CLOUDY   -13 -17  82 NW5       30.09S WCI -25
GREAT FALLS MT FAIR     -10 -17  71 SW17      29.98S WCI -34
CHEYENNE WY    FAIR     -12 -16  82 W5        29.80R WCI -24
SCOTTSBLUFF NE FAIR     -10 -15  78 NW7       30.00R WCI -25
OMAHA NE       MOCLDY    19  14  81 NW16G26   30.00R WCI   4
DES MOINES IA  FRZ DRZL  27  25  92 NW13      29.93R FOG     WCI  16
DAVENPORT IA   CLOUDY    37  34  89 W8        29.87R FOG
CHICAGO IL     CLOUDY    59  56  89 SW9       29.85S
EAU CLAIRE WI  CLOUDY    21  19  92 N6        29.82R WCI  13
LA CROSSE WI   CLOUDY    32  30  92 CALM      29.80R
$$

  *****  SOME NATIONAL WEATHER *****

CITY           SKY/WX    TMP DP  RH WIND       PRES   REMARKS
LA GUARDIA NY  CLOUDY    52  50  93 SW13      30.33S FOG
RALEIGH NC     FOG       55  55 100 W3        30.48R VSB 1/4
ATLANTA GA     FOG       62  62 100 SE6       30.38R VSB 1/4
NEW ORLEANS LA PTSUNNY   73  70  90 SE12      30.15R
OKLAHOMA CITY  TSTM      34  33  96 N30G39    29.88R VSB 1   WCI  20
ALBUQUERQUE NM CLOUDY    29  16  58 N7        29.95R WCI  22
SALT LAKE CITY LGT SNOW  21  17  84 S3        29.98R FOG
LOS ANGELES CA FAIR      45  16  31 N6        30.10R
BOISE ID       FAIR      11   2  67 NW5       30.12R WCI   3
SEATTLE WA     CLOUDY    29  19  66 SE3       30.17F
$$

*** WEATHER ACROSS MANITOBA...SASKATCHEWAN AND ONTARIO ***
                ***ONTARIO***

CITY           SKY/WX    TMP DP  RH WIND       PRES   REMARKS
GERALDTON      LGT SNOW  -8 -13  77 NE13G24   30.06F VSB 3/4 WCI -28
THUNDER BAY    LGT SNOW   3  -2  78 N5        29.97F WCI  -6
SIOUX LOOKOUT  LGT SNOW  -2  -8  78 NE5       30.00F WCI -12
TORONTO        LGT RAIN  43  43 100 SE5       30.01S VSB 3/8
BIG TROUT LK   CLEAR    -18 -29  57 SE5       30.32S WCI -31
PICKLE LAKE    CLOUDY    -8 -22  49 E8        30.13F WCI -23
DRYDEN         LGT SNOW   0  -6  78 NE14G21   29.97F WCI -19
KENORA         LGT SNOW   0  -4  85 N7        30.02R WCI -13
$$
                *** MANITOBA***

CITY           SKY/WX    TMP DP  RH WIND       PRES   REMARKS
BRANDON        FLURRIES   1  -4  78 SW6       30.09S WCI -10
DAUPHIN        MOCLDY     0  -8  71 SW8       30.07F WCI -15
ISLAND LAKE    MOCLDY   -13 -22  64 SE8       30.17F WCI -30
PILOT MOUND      N/A      3   0  85 NW6         N/A  WCI  -8
THE PAS        PTCLDY   -15 -22  70 SE6       29.98F WCI -29
THOMPSON       PTCLDY   -20 -26  76 NE3       30.07F
WINNIPEG       LGT SNOW   1  -2  85 NW2       30.14F
LYNN LAKE      LGT SNOW  -9 -13  84 N5        29.94F WCI -21
CHURCHILL      PTCLDY   -22 -27  76 E9        30.35R WCI -42
$$
                ***SASKATCHEWAN***

CITY           SKY/WX    TMP DP  RH WIND       PRES   REMARKS
ESTEVAN        CRYSTALS  -2  -8  78 SW8       30.06R WCI -17
KINDERSLEY     CLOUDY     0  -9  65 SW12      29.94S WCI -18
LLOYDMINSTER   LGT SNOW   7   3  85 N7        29.92R FOG     WCI  -5
PRINCE ALBERT  FLURRIES  -9 -13  84 VRB2      29.95R
REGINA         PTCLDY   -13 -18  77 SW5       30.00F WCI -25
YORKTON        MOCLDY    -8 -13  77 SW13      29.98F WCI -28
N. BATTLEFORD  LGT SNOW   5   0  78 W5        29.95R WC



USA.gov is the U.S. government's official web portal to all federal, state and local government web resources and services.